FW6754 Weather Reports


Display with metric or nautical units.
time (UTC)temp
F
wind
direction
speed
MPH
gust
MPH
rain 1hr
in
rain 24hr
in
rain mn
in
humidity
%
barometer
mb
20260503004911 54 0.0 0.0 0.00 0.00 0.00 10 1015.8
20260503003912 54 0.0 0.0 0.00 0.00 0.00 10 1016.1
20260503003412 54 0.0 0.0 0.00 0.00 0.00 10 1016.1
20260503002912 55 0.0 0.0 0.00 0.00 0.00 10 1016.1
20260503002412 55 0.0 0.0 0.00 0.00 0.00 10 1016.3
20260503001912 55 0.0 0.0 0.00 0.00 0.00 10 1016.4
20260503001412 55 0.0 0.0 0.00 0.00 0.00 10 1016.4
20260503000912 55 0.0 0.0 0.00 0.00 0.00 10 1016.4
20260503000412 55 0.0 0.0 0.00 0.00 0.00 10 1016.5
20260502235912 55 0.0 0.0 0.00 0.00 0.00 10 1016.5
20260502235412 55 0.0 0.0 0.00 0.00 0.00 10 1016.4
20260502234911 55 0.0 0.0 0.00 0.00 0.00 10 1016.5
20260502233911 55 0.0 0.0 0.00 0.00 0.00 10 1016.7
20260502232913 55 0.0 0.0 0.00 0.00 0.00 10 1016.7
20260502232411 55 0.0 0.0 0.00 0.00 0.00 10 1016.7
20260502231912 55 0.0 0.0 0.00 0.00 0.00 10 1016.7
20260502231412 55 0.0 0.0 0.00 0.00 0.00 10 1016.6
20260502230912 55 0.0 0.0 0.00 0.00 0.00 10 1016.5
20260502230412 55 0.0 0.0 0.00 0.00 0.00 10 1016.6
20260502225912 55 0.0 0.0 0.00 0.00 0.00 10 1016.5
20260502225412 55 0.0 0.0 0.00 0.00 0.00 10 1016.5
20260502224912 56 0.0 0.0 0.00 0.00 0.00 10 1016.5
20260502223911 56 0.0 0.0 0.00 0.00 0.00 10 1016.4
20260502223411 56 0.0 0.0 0.00 0.00 0.00 10 1016.3
20260502222912 56 0.0 0.0 0.00 0.00 0.00 10 1016.2
20260502222412 56 0.0 0.0 0.00 0.00 0.00 10 1016.2
20260502221912 57 0.0 0.0 0.00 0.00 0.00 10 1016.2
20260502220911 57 0.0 0.0 0.00 0.00 0.00 10 1016.3
20260502220411 57 0.0 0.0 0.00 0.00 0.00 10 1016.2
20260502215413 57 0.0 0.0 0.00 0.00 0.00 10 1016.3
20260502214912 58 0.0 0.0 0.00 0.00 0.00 10 1016.3
20260502214412 58 0.0 0.0 0.00 0.00 0.00 10 1016.4
20260502213912 57 0.0 0.0 0.00 0.00 0.00 10 1016.4
20260502213411 57 0.0 0.0 0.00 0.00 0.00 10 1016.4
20260502212411 57 0.0 0.0 0.00 0.00 0.00 10 1016.3
20260502211911 57 0.0 0.0 0.00 0.00 0.00 10 1016.4
20260502211413 57 0.0 0.0 0.00 0.00 0.00 10 1016.4
20260502210912 58 0.0 0.0 0.00 0.00 0.00 10 1016.5
20260502210412 58 0.0 0.0 0.00 0.00 0.00 10 1016.4
20260502205912 58 0.0 0.0 0.00 0.00 0.00 10 1016.4
20260502205411 58 0.0 0.0 0.00 0.00 0.00 10 1016.4
20260502204411 58 0.0 0.0 0.00 0.00 0.00 10 1016.5
20260502203911 58 0.0 0.0 0.00 0.00 0.00 10 1016.5
20260502202911 58 0.0 0.0 0.00 0.00 0.00 10 1016.5
20260502202412 58 0.0 0.0 0.00 0.00 0.00 10 1016.5
20260502201912 59 0.0 0.0 0.00 0.00 0.00 10 1016.5
20260502201412 59 0.0 0.0 0.00 0.00 0.00 10 1016.5
20260502200911 59 0.0 0.0 0.00 0.00 0.00 10 1016.6
20260502195912 59 0.0 0.0 0.00 0.00 0.00 10 1016.5
20260502195411 59 0.0 0.0 0.00 0.00 0.00 10 1016.5
20260502194912 59 0.0 0.0 0.00 0.00 0.00 10 1016.6
20260502194411 59 0.0 0.0 0.00 0.00 0.00 10 1016.5
20260502193911 59 0.0 0.0 0.00 0.00 0.00 10 1016.5
20260502192912 59 0.0 0.0 0.00 0.00 0.00 10 1016.5
20260502192411 60 0.0 0.0 0.00 0.00 0.00 10 1016.3
20260502191412 60 0.0 0.0 0.00 0.00 0.00 10 1016.3
20260502190912 61 0.0 0.0 0.00 0.00 0.00 10 1016.2
20260502185912 62 0.0 0.0 0.00 0.00 0.00 10 1016.0
20260502185412 63 0.0 0.0 0.00 0.00 0.00 10 1015.9
20260502184913 63 0.0 0.0 0.00 0.00 0.00 10 1015.8
20260502184412 64 0.0 0.0 0.00 0.00 0.00 10 1015.8
20260502183912 65 0.0 0.0 0.00 0.00 0.00 10 1015.7
20260502182912 66 0.0 0.0 0.00 0.00 0.00 10 1015.7
20260502182411 67 0.0 0.0 0.00 0.00 0.00 10 1015.6
20260502181912 68 0.0 0.0 0.00 0.00 0.00 10 1015.6
20260502181412 68 0.0 0.0 0.00 0.00 0.00 10 1015.5
20260502180912 68 0.0 0.0 0.00 0.00 0.00 10 1015.4
20260502180412 69 0.0 0.0 0.00 0.00 0.00 10 1015.5
20260502163912 75 0.0 0.0 0.00 0.00 0.00 10 1015.5
20260502163411 74 0.0 0.0 0.00 0.00 0.00 10 1015.7
20260502162411 73 0.0 0.0 0.00 0.00 0.00 10 1015.8
20260502161911 73 0.0 0.0 0.00 0.00 0.00 10 1015.9
20260502161412 74 0.0 0.0 0.00 0.00 0.00 10 1016.0
20260502160912 73 0.0 0.0 0.00 0.00 0.00 10 1016.0
20260502160412 74 0.0 0.0 0.00 0.00 0.00 10 1015.9
20260502150912 78 0.0 0.0 0.00 0.00 0.00 98 1016.1
20260502150411 79 0.0 0.0 0.00 0.00 0.00 90 1016.2
20260502130411 79 0.0 0.0 0.00 0.00 0.00 10 1017.4
20260502123411 81 0.0 0.0 0.00 0.00 0.00 10 1017.7
20260502122912 82 0.0 0.0 0.00 0.00 0.00 10 1017.6
20260502122411 83 0.0 0.0 0.00 0.00 0.00 10 1017.7
20260502121411 86 0.0 0.0 0.00 0.00 0.00 99 1017.6
20260502120911 86 0.0 0.0 0.00 0.00 0.00 10 1017.6
20260502120412 85 0.0 0.0 0.00 0.00 0.00 10 1017.6
20260502115411 76 0.0 0.0 0.00 0.00 0.00 10 1018.2
20260502113912 74 0.0 0.0 0.00 0.00 0.00 10 1018.4
20260502113412 74 0.0 0.0 0.00 0.00 0.00 10 1018.5
20260502112912 73 0.0 0.0 0.00 0.00 0.00 10 1018.5
20260502112412 73 0.0 0.0 0.00 0.00 0.00 10 1018.7
20260502111912 73 0.0 0.0 0.00 0.00 0.00 10 1018.6
20260502111411 72 0.0 0.0 0.00 0.00 0.00 10 1018.7
20260502110911 72 0.0 0.0 0.00 0.00 0.00 10 1018.7
20260502110411 73 0.0 0.0 0.00 0.00 0.00 10 1018.7
20260502105411 73 0.0 0.0 0.00 0.00 0.00 10 1018.8
20260502104411 72 0.0 0.0 0.00 0.00 0.00 10 1018.9
20260502103912 71 0.0 0.0 0.00 0.00 0.00 10 1019.0
20260502103412 71 0.0 0.0 0.00 0.00 0.00 10 1019.2
20260502102912 71 0.0 0.0 0.00 0.00 0.00 10 1019.1
20260502102412 71 0.0 0.0 0.00 0.00 0.00 10 1019.2
20260502101912 71 0.0 0.0 0.00 0.00 0.00 10 1019.3
20260502101413 70 0.0 0.0 0.00 0.00 0.00 10 1019.3
20260502100912 70 0.0 0.0 0.00 0.00 0.00 10 1019.4
20260502100411 70 0.0 0.0 0.00 0.00 0.00 10 1019.5
20260502091411 67 0.0 0.0 0.00 0.00 0.00 10 1020.6
20260502090911 66 0.0 0.0 0.00 0.00 0.00 10 1020.7
20260502071413 61 0.0 0.0 0.00 0.00 0.00 10 1021.4
20260502070912 61 0.0 0.0 0.00 0.00 0.00 10 1021.4
20260502070411 61 0.0 0.0 0.00 0.00 0.00 10 1021.4
20260502065411 61 0.0 0.0 0.00 0.00 0.00 10 1021.4
20260502064911 60 0.0 0.0 0.00 0.00 0.00 10 1021.3
20260502063911 60 0.0 0.0 0.00 0.00 0.00 10 1021.3
20260502063411 59 0.0 0.0 0.00 0.00 0.00 10 1021.3
20260502062911 59 0.0 0.0 0.00 0.00 0.00 10 1021.4
20260502062412 59 0.0 0.0 0.00 0.00 0.00 10 1021.4
20260502061911 58 0.0 0.0 0.00 0.00 0.00 10 1021.4
20260502060911 57 0.0 0.0 0.00 0.00 0.00 10 1021.4
20260502055912 56 0.0 0.0 0.00 0.00 0.00 10 1021.6
20260502055412 55 0.0 0.0 0.00 0.00 0.00 10 1021.6
20260502054912 55 0.0 0.0 0.00 0.00 0.00 10 1021.5
20260502054412 55 0.0 0.0 0.00 0.00 0.00 10 1021.5
20260502053912 55 0.0 0.0 0.00 0.00 0.00 10 1021.6
20260502052411 54 0.0 0.0 0.00 0.00 0.00 10 1021.8
20260502051412 54 0.0 0.0 0.00 0.00 0.00 10 1021.7
20260502050912 54 0.0 0.0 0.00 0.00 0.00 10 1021.7
20260502050412 54 0.0 0.0 0.00 0.00 0.00 10 1021.7
20260502045912 54 0.0 0.0 0.00 0.00 0.00 10 1021.7
20260502045411 54 0.0 0.0 0.00 0.00 0.00 10 1021.8
20260502044911 54 0.0 0.0 0.00 0.00 0.00 10 1021.8
20260502044412 54 0.0 0.0 0.00 0.00 0.00 10 1021.8
20260502043912 54 0.0 0.0 0.00 0.00 0.00 10 1021.9
20260502043412 54 0.0 0.0 0.00 0.00 0.00 10 1021.9
20260502042911 54 0.0 0.0 0.00 0.00 0.00 10 1022.0
20260502042411 54 0.0 0.0 0.00 0.00 0.00 10 1021.9
20260502041912 54 0.0 0.0 0.00 0.00 0.00 10 1022.0
20260502041411 54 0.0 0.0 0.00 0.00 0.00 10 1022.1
20260502040912 54 0.0 0.0 0.00 0.00 0.00 10 1022.1
20260502040412 54 0.0 0.0 0.00 0.00 0.00 10 1022.1
20260502035912 53 0.0 0.0 0.00 0.00 0.00 10 1022.1
20260502035412 53 0.0 0.0 0.00 0.00 0.00 10 1022.2
20260502034912 53 0.0 0.0 0.00 0.00 0.00 10 1022.2
20260502034411 53 0.0 0.0 0.00 0.00 0.00 10 1022.3
20260502033911 53 0.0 0.0 0.00 0.00 0.00 10 1022.3
20260502032912 53 0.0 0.0 0.00 0.00 0.00 10 1022.3
20260502032412 53 0.0 0.0 0.00 0.00 0.00 10 1022.4
20260502031412 53 0.0 0.0 0.00 0.00 0.00 10 1022.4
20260502030911 53 0.0 0.0 0.00 0.00 0.00 10 1022.4
20260502025912 53 0.0 0.0 0.00 0.00 0.00 10 1022.4
20260502025411 53 0.0 0.0 0.00 0.00 0.00 10 1022.4
20260502024912 53 0.0 0.0 0.00 0.00 0.00 10 1022.4
20260502024412 53 0.0 0.0 0.00 0.00 0.00 10 1022.5
20260502023913 53 0.0 0.0 0.00 0.00 0.00 10 1022.4
20260502023412 53 0.0 0.0 0.00 0.00 0.00 10 1022.3
20260502022913 53 0.0 0.0 0.00 0.00 0.00 10 1022.4
20260502022411 53 0.0 0.0 0.00 0.00 0.00 10 1022.3
20260502021911 53 0.0 0.0 0.00 0.00 0.00 10 1022.3
20260502020912 53 0.0 0.0 0.00 0.00 0.00 10 1022.5
20260502020412 53 0.0 0.0 0.00 0.00 0.00 10 1022.5
20260502015911 53 0.0 0.0 0.00 0.00 0.00 10 1022.6
20260502015411 53 0.0 0.0 0.00 0.00 0.00 10 1022.5
20260502014912 53 0.0 0.0 0.00 0.00 0.00 10 1022.6
20260502014411 53 0.0 0.0 0.00 0.00 0.00 10 1022.6
20260502013912 53 0.0 0.0 0.00 0.00 0.00 10 1022.7
20260502013412 53 0.0 0.0 0.00 0.00 0.00 10 1022.7
20260502012912 53 0.0 0.0 0.00 0.00 0.00 10 1022.8
20260502012412 53 0.0 0.0 0.00 0.00 0.00 10 1022.8
20260502011912 53 0.0 0.0 0.00 0.00 0.00 10 1022.8
20260502011412 53 0.0 0.0 0.00 0.00 0.00 10 1022.9
20260502010912 53 0.0 0.0 0.00 0.00 0.00 10 1022.9
20260502010411 53 0.0 0.0 0.00 0.00 0.00 10 1022.9
20260502005912 53 0.0 0.0 0.00 0.00 0.00 10 1022.9
20260502005411 53 0.0 0.0 0.00 0.00 0.00 10 1022.9